Home > Weather > Carrollton > Past weeks

Flag for USA Weather for the Past 2 Weeks in Carrollton, Texas, USA

Now
71 °F

Partly cloudy.


Feels Like: 72 °F
Forecast: 68 / 79 °F
Wind: 12 mph from Southeast

Location: Dallas Love Field

Current Time: Apr 29, 2016 at 2:09:42 AM

Latest Report: Apr 29, 2016 at 1:04 AM


Visibility: 10 mi

Pressure: 29.76 "Hg

Humidity: 78%

Dew Point: 64 °F

Location of CarrolltonLocation

Historic Weather in Carrollton — Graph

°F

Carrollton Temperature Yesterday

Maximum temperature yesterday: 86 °F (at 4:53 PM)
Minimum temperature yesterday: 61 °F (at 5:53 AM)
Average temperature yesterday: 75 °F

High & Low Weather Summary for the Past Weeks

 TemperatureHumidityPressure
High86 °F (Apr 25, 3:53 PM)97% (Apr 15, 7:04 AM)30.15 "Hg (Apr 15, 7:04 AM)
Low56 °F (Apr 15, 7:04 AM)24% (Apr 27, 4:53 PM)29.54 "Hg (Apr 26, 8:53 PM)
Average70 °F69%29.90 "Hg
* Reported Apr 13 11:53 PM — Apr 28 11:53 PM, Carrollton, Weather by CustomWeather, © 2016

Note: Actual official high and low records may vary slightly from our data, if they occured in-between our weather recording intervals... More about our weather records

Advertising

Carrollton Weather History for the Previous 24 Hours

Scroll right to see more
 ConditionsComfort  
Time TempWeatherWind HumidityBarometerVisibility
11:53 PM
Thu, Apr 28
77 °FPartly cloudy.17 mph52%29.75 "Hg10 mi
10:53 PM78 °FOvercast.15 mph50%29.77 "Hg10 mi
9:53 PM78 °FPassing clouds.12 mph52%29.78 "Hg10 mi
8:53 PM80 °FScattered clouds.10 mph49%29.78 "Hg10 mi
7:53 PM82 °FPassing clouds.13 mph44%29.76 "Hg10 mi
6:53 PM83 °FPassing clouds.18 mph38%29.77 "Hg10 mi
5:53 PM85 °FPassing clouds.15 mph36%29.77 "Hg10 mi
4:53 PM86 °FSunny.16 mph36%29.77 "Hg10 mi
3:53 PM85 °FSunny.13 mph39%29.79 "Hg10 mi
2:53 PM84 °FSunny.16 mph38%29.83 "Hg10 mi
1:53 PM83 °FSunny.15 mph41%29.85 "Hg10 mi
12:53 PM81 °FSunny.9 mph41%29.87 "Hg10 mi
11:53 AM80 °FSunny.12 mph38%29.88 "Hg10 mi
10:53 AM78 °FSunny.12 mph43%29.88 "Hg10 mi
9:53 AM74 °FPassing clouds.12 mph52%29.88 "Hg10 mi
8:53 AM70 °FSunny.9 mph59%29.88 "Hg10 mi
7:53 AM64 °FSunny.8 mph75%29.85 "Hg10 mi
6:53 AM62 °FClear.5 mph75%29.82 "Hg10 mi
5:53 AM61 °FClear.8 mph78%29.80 "Hg10 mi
4:53 AM64 °FClear.6 mph70%29.78 "Hg10 mi
3:53 AM62 °FClear.5 mph78%29.77 "Hg10 mi
2:53 AM66 °FClear.8 mph63%29.77 "Hg10 mi
Weather by CustomWeather, © 2016

See weather overviewHow to use our weather pages